SCD 1 1 22490U 93009B 26071.49361601 .00000527 00000+0 92847-4 0 9991 2 22490 24.9692 84.5783 0041872 194.2509 298.9677 14.46069949747107 TECHSAT 1B (GO-32) 1 25397U 98043D 26071.54984197 .00000125 00000+0 73993-4 0 9995 2 25397 99.0029 61.8925 0002134 115.0247 245.1152 14.24407055437576 SCD 2 1 25504U 98060A 26071.39370433 .00000485 00000+0 84574-4 0 9995 2 25504 24.9959 309.0690 0016781 179.6346 354.8551 14.45484638446307 DLR-TUBSAT 1 25757U 99029B 26071.57049817 .00000188 00000+0 58011-4 0 9997 2 25757 98.6667 63.9134 0013079 285.3679 74.6070 14.52399041419226 TERRA 1 25994U 99068A 26072.01302381 .00000518 00000+0 11473-3 0 9998 2 25994 97.9587 125.3207 0002900 143.9108 332.0707 14.61018741395566 MAROC-TUBSAT 1 27004U 01056D 26071.46666193 -.00000006 00000+0 46290-4 0 9993 2 27004 99.8014 246.5168 0020201 32.6792 352.6624 13.70258169212940 AQUA 1 27424U 02022A 26071.96594350 .00001249 00000+0 25893-3 0 9997 2 27424 98.4179 39.3906 0000581 93.4732 307.8118 14.61986054269213 IRS-P6 (RESOURCESAT-1) 1 28051U 03046A 26072.02175206 .00000206 00000+0 83050-4 0 9996 2 28051 98.2043 113.1916 0062883 270.9244 200.7898 14.36119464166726 SHIYAN-1 (SY-1) 1 28220U 04012A 26071.74279682 .00015069 00000+0 50298-3 0 9999 2 28220 97.8765 143.7161 0005626 12.8174 347.3207 15.31146424196321 AURA 1 28376U 04026A 26071.98403316 .00001219 00000+0 25751-3 0 9993 2 28376 98.3314 27.7083 0001068 88.0199 272.1124 14.61158184152166 IRS-P5 (CARTOSAT-1) 1 28649U 05017A 26071.63495470 .00001938 00000+0 20249-3 0 9996 2 28649 97.5415 99.0511 0002271 65.8264 294.3192 14.90778904129438 SINAH 1 1 28893U 05043D 26071.96680932 .00000584 00000+0 12049-3 0 9996 2 28893 98.2690 205.8101 0013825 213.5447 146.4880 14.64077831 86442 RESURS-DK 1 1 29228U 06021A 26071.77551629 .00003886 00000+0 22706-3 0 9994 2 29228 69.9325 229.0399 0001569 159.9148 200.2081 15.12769237 87990 ARIRANG-2 (KOMPSAT-2) 1 29268U 06031A 26071.98263466 .00000523 00000+0 10689-3 0 9993 2 29268 97.8308 261.0770 0015060 23.9422 131.5778 14.64592428 47391 LAPAN-TUBSAT 1 29709U 07001A 26071.95768435 .00001238 00000+0 14863-3 0 9996 2 29709 98.1341 69.0288 0013066 133.9373 226.2922 14.85838843 36863 HAIYANG-1B 1 31113U 07010A 26071.58432309 .00000150 00000+0 72606-4 0 9997 2 31113 98.3431 57.2107 0014422 124.6798 235.5746 14.31000545986818 COSMO-SKYMED 1 1 31598U 07023A 26072.00755965 .00004967 00000+0 44158-3 0 9992 2 31598 97.8881 263.0659 0001528 97.1485 262.9910 14.96566492 15401 TERRASAR-X 1 31698U 07026A 26071.49708387 .00001660 00000+0 82237-4 0 9992 2 31698 97.4465 80.5796 0001780 79.0937 281.0498 15.19155644 38543 WORLDVIEW-1 (WV-1) 1 32060U 07041A 26071.78697950 .00008928 00000+0 36485-3 0 9995 2 32060 97.3823 192.9224 0003296 130.7434 229.4091 15.24596218 28196 YAOGAN-3 1 32289U 07055A 26071.99883846 .00001811 00000+0 19179-3 0 9992 2 32289 97.8278 102.8032 0001651 80.3514 279.7890 14.90381072991531 COSMO-SKYMED 2 1 32376U 07059A 26071.95852400 .00000675 00000+0 91344-4 0 9993 2 32376 97.8872 256.9473 0001333 83.6213 276.5152 14.82147786987744 RADARSAT-2 1 32382U 07061A 26071.96779229 .00000104 00000+0 57384-4 0 9994 2 32382 98.5824 80.2628 0001216 84.6139 275.5182 14.29979907952208 CARTOSAT-2A 1 32783U 08021A 26071.98840760 .00000914 00000+0 12999-3 0 9998 2 32783 97.7771 123.9298 0013230 67.0288 293.2318 14.79108842964581 HUANJING 1A (HJ-1A) 1 33320U 08041A 26072.00720774 .00002109 00000+0 26025-3 0 9997 2 33320 97.6641 61.6113 0020730 93.5584 266.8002 14.83735171944146 HUANJING 1B (HJ-1B) 1 33321U 08041B 26072.00190203 .00001395 00000+0 17541-3 0 9995 2 33321 97.6489 65.0596 0037373 137.1995 223.2140 14.83112737944150 GEOEYE 1 1 33331U 08042A 26071.96553785 .00000629 00000+0 12682-3 0 9999 2 33331 98.1201 147.1107 0003779 19.3091 340.8254 14.64771945936064 THEOS 1 33396U 08049A 26072.00756481 .00000033 00000+0 35347-4 0 9994 2 33396 98.5694 132.3662 0001049 91.0790 269.0507 14.20117500904317 COSMO-SKYMED 3 1 33412U 08054A 26071.97474387 .00006133 00000+0 42098-3 0 9993 2 33412 97.8418 288.9200 0014547 229.1396 130.8570 15.06283189942455 YAOGAN-4 1 33446U 08061A 26071.75625447 .00001668 00000+0 21159-3 0 9992 2 33446 97.9247 6.0266 0015140 29.9854 330.2223 14.82989341931375 GOSAT (IBUKI) 1 33492U 09002A 26071.72895576 .00000313 00000+0 63623-4 0 9997 2 33492 98.0768 184.0805 0001134 82.9525 277.1809 14.67545077917318 DEIMOS-1 1 35681U 09041A 26072.00420572 .00000629 00000+0 10025-3 0 9991 2 35681 97.7266 233.4676 0002405 113.0261 247.1202 14.75121066892705 DUBAISAT-1 1 35682U 09041B 26071.82943349 .00001489 00000+0 22915-3 0 9999 2 35682 97.9879 206.2407 0010880 26.8248 333.3522 14.74916932890894 OCEANSAT-2 1 35931U 09051A 26071.97900830 .00000349 00000+0 26409-3 0 9997 2 35931 98.2280 68.4597 0017382 142.2197 218.0193 13.99640075865870 WORLDVIEW-2 (WV-2) 1 35946U 09055A 26071.92777426 .00000182 00000+0 74586-4 0 9990 2 35946 98.4688 146.7472 0005178 137.2782 222.8809 14.37912101861818 SMOS 1 36036U 09059A 26071.93743779 .00000369 00000+0 13158-3 0 9994 2 36036 98.4431 260.6685 0000962 84.9921 275.1377 14.39763220859609 YAOGAN-7 1 36110U 09069A 26071.68121920 .00000876 00000+0 12852-3 0 9991 2 36110 98.0205 318.0800 0024538 353.7680 6.3222 14.77898568875379 TANDEM-X 1 36605U 10030A 26071.56295076 .00001682 00000+0 83275-4 0 9995 2 36605 97.4475 80.6448 0001864 96.5465 263.5981 15.19155964871974 CARTOSAT-2B 1 36795U 10035A 26071.97673661 .00001082 00000+0 15450-3 0 9998 2 36795 97.9145 123.1972 0012118 137.7891 222.4256 14.78659663845635 YAOGAN-10 1 36834U 10038A 26072.01288123 .00002222 00000+0 26665-3 0 9993 2 36834 97.9083 96.1616 0001570 88.2711 355.4287 14.85028710842937 COSMO-SKYMED 4 1 37216U 10060A 26071.97117554 .00000381 00000+0 54373-4 0 9998 2 37216 97.8872 256.9598 0001510 83.5443 276.5942 14.82143491830317 RESOURCESAT-2 1 37387U 11015A 26071.66845553 -.00000282 00000+0 -10847-3 0 9990 2 37387 98.7716 139.7371 0006465 131.2086 228.9650 14.21493743772467 HAIYANG-2A 1 37781U 11043A 26071.98168381 -.00000158 00000+0 -11359-3 0 9992 2 37781 99.3424 76.5319 0002124 258.8986 101.1926 13.78024115733426 RASAT 1 37791U 11044D 26071.95159188 .00000502 00000+0 95665-4 0 9990 2 37791 98.0550 164.8401 0021534 134.9487 336.2147 14.68061618779067 SRMSAT 1 37841U 11058D 26071.88014721 .00000480 00000+0 11685-3 0 9990 2 37841 19.9720 282.3949 0011726 224.2053 250.8798 14.11549135744193 PLEIADES 1A 1 38012U 11076F 26072.02615919 .00000279 00000+0 69871-4 0 9991 2 38012 98.2035 148.3969 0001684 87.0333 35.4975 14.58542777757974 ZIYUAN 1-02C (ZY 1-02C) 1 38038U 11079A 26072.00726008 .00000377 00000+0 13853-3 0 9999 2 38038 98.4164 141.2949 0005477 228.5781 254.4883 14.38127102745382 ARIRANG-3 (KOMPSAT-3) 1 38338U 12025B 26072.02162377 .00000712 00000+0 15080-3 0 9996 2 38338 98.1068 31.2050 0006634 62.4815 297.7060 14.62107957737296 EXACTVIEW-1 (ADS-1B) 1 38709U 12039C 26071.76351600 .00000196 00000+0 10353-3 0 9996 2 38709 98.9639 187.0438 0011899 90.3552 269.8990 14.24952682708973 SPOT 6 1 38755U 12047A 26071.94927944 .00000063 00000+0 23367-4 0 9999 2 38755 98.2211 140.3460 0001517 92.3727 267.7646 14.58543816719027 PLEIADES 1B 1 39019U 12068A 26071.96848913 .00000130 00000+0 37744-4 0 9995 2 39019 98.2006 148.3225 0001607 84.6695 275.4688 14.58529402706829 GOKTURK 2 1 39030U 12073A 26071.98655156 .00000957 00000+0 14784-3 0 9996 2 39030 97.6888 274.2027 0000963 63.0943 297.0365 14.75440594710328 LANDSAT 8 1 39084U 13008A 26071.81915397 .00000455 00000+0 11093-3 0 9995 2 39084 98.1911 143.4934 0001274 90.6655 269.4689 14.57114121683860 SARAL 1 39086U 13009A 26071.95305862 .00000143 00000+0 68469-4 0 9997 2 39086 98.5559 259.7285 0001667 171.4501 188.6712 14.32829823681826 GAOFEN-1 1 39150U 13018A 26071.96866491 .00000962 00000+0 14491-3 0 9994 2 39150 97.9167 145.9616 0016558 213.1529 146.8644 14.76553124694043 VNREDSAT 1 1 39160U 13021B 26071.98297832 .00000533 00000+0 10823-3 0 9997 2 39160 97.9208 129.0330 0001585 84.2244 275.9140 14.64895084686206 ARIRANG-5 (KOMPSAT-5) 1 39227U 13042A 26071.99501067 .00003288 00000+0 23928-3 0 9993 2 39227 97.6211 260.0318 0004465 104.4882 255.6840 15.04483358689393 SKYSAT-A 1 39418U 13066C 26071.67903352 .00004153 00000+0 24190-3 0 9993 2 39418 97.3952 124.1299 0020069 289.4072 70.4990 15.12379022673893 DUBAISAT-2 1 39419U 13066D 26071.97165652 .00004604 00000+0 29153-3 0 9995 2 39419 97.4542 64.7113 0011769 13.7802 346.3746 15.09399391671877 GPM-CORE 1 39574U 14009C 26071.94723194 .00008769 00000+0 19113-3 0 9994 2 39574 64.9725 270.5750 0012390 266.8607 93.1116 15.44774650682942 SENTINEL-1A 1 39634U 14016A 26071.95609141 -.00000122 00000+0 -16074-4 0 9996 2 39634 98.1825 80.8799 0001318 84.1761 275.9589 14.59198402635980 KAZEOSAT 1 1 39731U 14024A 26071.99202707 -.00000006 00000+0 11145-4 0 9998 2 39731 98.3274 146.8065 0001038 85.1802 274.9506 14.42036726624699 ALOS-2 1 39766U 14029A 26071.96510894 .00001194 00000+0 16650-3 0 9990 2 39766 97.9187 170.5143 0001515 97.3162 262.8222 14.79517193637350 KAZEOSAT 2 1 40010U 14033A 26071.96823757 .00000694 00000+0 86527-4 0 9999 2 40010 97.5488 276.6209 0007181 280.1517 79.8888 14.85342477634670 HODOYOSHI-4 1 40011U 14033B 26072.00717927 .00002310 00000+0 25716-3 0 9996 2 40011 97.5455 261.4784 0022293 264.3669 95.5006 14.87858217634503 DEIMOS-2 1 40013U 14033D 26071.97884098 .00001871 00000+0 18330-3 0 9992 2 40013 97.5972 309.7872 0000831 51.7674 308.3620 14.93422600623360 HODOYOSHI-3 1 40015U 14033F 26071.98200424 .00001564 00000+0 18719-3 0 9990 2 40015 97.6309 238.9599 0031907 313.0995 46.7551 14.85149271633340 SPOT 7 1 40053U 14034A 26071.95159310 .00000406 00000+0 92290-4 0 9998 2 40053 98.0737 136.8839 0001443 98.9137 261.2227 14.60865108623085 SKYSAT-B 1 40072U 14037D 26071.82336781 .00002321 00000+0 26119-3 0 9991 2 40072 98.3727 25.3764 0004526 220.9442 139.1434 14.87741203631639 WORLDVIEW-3 (WV-3) 1 40115U 14048A 26071.94279580 .00001196 00000+0 14700-3 0 9999 2 40115 97.8629 148.0927 0000144 185.9615 174.1598 14.84843729627627 GAOFEN-2 1 40118U 14049A 26071.95640593 .00000693 00000+0 96902-4 0 9996 2 40118 98.0216 136.2180 0007278 174.2003 185.9295 14.80777733624990 YAOGAN-21 1 40143U 14053A 26072.01196295 .00006823 00000+0 27590-3 0 9999 2 40143 97.1616 116.4094 0010087 77.0859 283.1505 15.24983491640292 YAOGAN-22 1 40275U 14063A 26071.98104567 .00000006 00000+0 13858-3 0 9991 2 40275 100.7546 221.7140 0006601 50.9988 309.1710 13.15527278547167 ASNARO 1 40298U 14070A 26071.95215189 .00008339 00000+0 39690-3 0 9993 2 40298 97.3509 150.6299 0006456 147.5053 212.6581 15.19387035629392 YAOGAN-24 1 40310U 14072A 26071.96428510 .00001125 00000+0 17000-3 0 9992 2 40310 98.1309 208.5792 0012513 207.3522 152.7029 14.76238980609522 CBERS 4 1 40336U 14079A 26071.98934280 .00000007 00000+0 17069-4 0 9999 2 40336 98.3472 131.8953 0000801 44.9967 315.1284 14.35515953590154 YAOGAN-26 1 40362U 14088A 26071.97964652 .00030647 00000+0 68596-3 0 9996 2 40362 97.0671 74.7086 0006707 58.2329 301.9573 15.43389628622847 SMAP 1 40376U 15003A 26072.01165004 .00000659 00000+0 13674-3 0 9996 2 40376 98.1312 80.4538 0001505 110.5076 249.6288 14.63344081593555 KOMPSAT-3A 1 40536U 15014A 26071.95392953 .00026851 00000+0 45955-3 0 9992 2 40536 97.6876 56.6622 0063698 165.7159 194.5912 15.48906766606898 SENTINEL-2A 1 40697U 15028A 26071.99096922 .00000017 00000+0 23187-4 0 9996 2 40697 98.5646 148.2358 0001229 98.5030 261.6293 14.30813654559975 GAOFEN-8 1 40701U 15030A 26071.99131336 .00020535 00000+0 47347-3 0 9994 2 40701 97.6941 259.8162 0009547 176.4262 183.7055 15.42568327596604 CARBONITE 1 (CBNT-1) 1 40718U 15032D 26071.99461765 .00004622 00000+0 57063-3 0 9991 2 40718 97.6471 254.1219 0013227 248.3153 111.6653 14.83240504575080 YAOGAN-27 1 40878U 15040A 26072.01418963 .00000329 00000+0 97705-3 0 9990 2 40878 100.1115 62.5947 0008928 77.3318 282.8793 13.16067109505011 GAOFEN-9 01 1 40894U 15047A 26071.96849588 .00001334 00000+0 17046-3 0 9996 2 40894 97.6408 111.9870 0028949 95.6704 264.7812 14.82690801565938 YAOGAN-28 1 41026U 15064A 26071.97960454 .00008598 00000+0 33581-3 0 9991 2 41026 97.2902 212.3816 0011440 165.2255 194.9321 15.26064291576006 YAOGAN-29 1 41038U 15069A 26072.03313734 .00000599 00000+0 80414-4 0 9991 2 41038 98.0145 100.4716 0001655 30.8872 329.2439 14.82999560556370 KENT RIDGE 1 1 41167U 15077B 26071.74887106 .00005242 00000+0 18759-3 0 9991 2 41167 14.9793 262.8588 0008492 319.3803 40.5886 15.22481704566375 GAOFEN-4 1 41194U 15083A 26071.83844752 -.00000334 00000+0 00000+0 0 9992 2 41194 0.4001 83.7628 0003922 77.9821 56.2467 1.00270146 37562 JASON-3 1 41240U 16002A 26072.00263951 -.00000020 00000+0 16664-3 0 9991 2 41240 66.0440 328.0570 0007734 277.0828 82.9311 12.87626255474860 SENTINEL-3A 1 41335U 16011A 26071.99830614 .00000119 00000+0 67217-4 0 9998 2 41335 98.6222 140.7366 0001250 96.8114 263.3208 14.26735337524344 ZIYUAN 3-02 (ZY 3-02) 1 41556U 16033A 26071.96254581 .00007842 00000+0 34988-3 0 9995 2 41556 97.3895 149.5592 0010957 285.8573 74.1454 15.21606654543350 CARTOSAT-2C 1 41599U 16040A 26071.96474187 .00003701 00000+0 17862-3 0 9998 2 41599 97.4605 133.2085 0010477 111.0722 249.1634 15.19258166539107 SKYSAT-C1 1 41601U 16040C 26071.63524638 .00010226 00000+0 30730-3 0 9992 2 41601 96.9703 108.6412 0003318 46.8686 313.2835 15.34579698543052 LAPAN-A3 1 41603U 16040E 26071.96346130 .00004793 00000+0 15528-3 0 9999 2 41603 97.1486 71.3263 0010630 11.8151 348.3339 15.32419569540074 GAOFEN-3 1 41727U 16049A 26071.99563266 -.00000167 00000+0 -37485-4 0 9999 2 41727 98.4060 81.2201 0001677 88.9201 271.2181 14.42216414504788 SKYSAT-C4 1 41771U 16058B 26071.95762873 .00018287 00000+0 38268-3 0 9998 2 41771 96.9291 97.9154 0001169 127.1673 232.9684 15.45499958530592 SKYSAT-C5 1 41772U 16058C 26071.62992692 .00009296 00000+0 28166-3 0 9993 2 41772 97.0615 116.5685 0001665 86.9951 273.1483 15.34353290528940 SKYSAT-C2 1 41773U 16058D 26071.63278255 .00013416 00000+0 34027-3 0 9999 2 41773 97.0282 97.4666 0004844 62.0869 298.0868 15.39788112530184 SKYSAT-C3 1 41774U 16058E 26071.59552594 .00021872 00000+0 41287-3 0 9997 2 41774 96.9179 106.3442 0001758 112.3442 247.7996 15.48464956531144 ALSAT-1B 1 41785U 16059C 26072.00158713 .00000625 00000+0 10659-3 0 9994 2 41785 97.7810 84.9046 0009390 166.8934 193.2520 14.72192204506429 PATHFINDER 1 1 41787U 16059E 26072.00335039 .00000959 00000+0 17633-3 0 9993 2 41787 97.8179 75.6267 0029191 150.4468 209.8395 14.67525401505600 SCATSAT 1 1 41790U 16059H 26071.76539595 .00001761 00000+0 23848-3 0 9999 2 41790 98.1299 134.5105 0054583 197.5076 162.4255 14.79275013 87335 GOKTURK 1A 1 41875U 16073A 26072.00155456 .00000536 00000+0 11431-3 0 9991 2 41875 98.1355 328.1288 0001348 78.8099 281.3254 14.62753536494764 RESOURCESAT-2A 1 41877U 16074A 26071.99873366 -.00000274 00000+0 -10462-3 0 9992 2 41877 98.7593 146.2645 0002356 28.7579 331.3728 14.21600681480639 CARTOSAT-2D 1 41948U 17008A 26071.86645005 -.00000025 00000+0 20080-5 0 9994 2 41948 97.4226 132.9125 0004511 206.0706 154.0302 15.19280641502956 SENTINEL-2B 1 42063U 17013A 26071.98370552 -.00000093 00000+0 -18697-4 0 9990 2 42063 98.5647 148.1295 0001147 94.8084 265.3230 14.30820456470883 CARTOSAT-2E 1 42767U 17036C 26072.34451109 -.00000009 00000+0 27524-5 0 9991 2 42767 97.4394 133.6702 0002552 283.3487 76.7463 15.19221734483592 FORMOSAT-5 1 42920U 17049A 26071.98302277 .00000232 00000+0 69904-4 0 9990 2 42920 98.2307 149.4196 0011509 26.9626 333.2165 14.50823564452720 SENTINEL-5P 1 42969U 17064A 26071.77643567 .00000096 00000+0 66624-4 0 9991 2 42969 98.7884 14.6118 0001035 91.2113 268.9181 14.19499970435889 SKYSAT-C11 1 42987U 17068A 26071.81050129 .00034500 00000+0 56075-3 0 9991 2 42987 97.4206 216.8986 0000532 77.8422 282.2891 15.52628000468267 SKYSAT-C10 1 42988U 17068B 26071.80023692 .00012625 00000+0 40126-3 0 9990 2 42988 97.4337 207.9265 0000990 93.6981 266.4374 15.32763192467582 SKYSAT-C9 1 42989U 17068C 26071.37897991 .00017205 00000+0 44674-3 0 9995 2 42989 97.4263 207.5622 0009875 123.6852 236.5336 15.38988377467852 SKYSAT-C8 1 42990U 17068D 26071.32403326 .00013821 00000+0 41111-3 0 9990 2 42990 97.4356 206.8952 0001210 95.1947 264.9434 15.34849583467448 SKYSAT-C7 1 42991U 17068E 26071.83577893 .00013397 00000+0 39873-3 0 9998 2 42991 97.4367 208.3947 0007304 94.2199 265.9879 15.34815519467582 SKYSAT-C6 1 42992U 17068F 26071.37963448 .00012741 00000+0 40730-3 0 9999 2 42992 97.4399 208.2118 0003714 121.7106 238.4499 15.32572512467485 CARTOSAT-2F 1 43111U 18004A 26071.98130755 .00004490 00000+0 21595-3 0 9998 2 43111 97.4155 133.0818 0001208 194.0356 166.0846 15.19298112452726 GAOFEN-1 02 1 43259U 18031A 26071.99616709 -.00000077 00000+0 -36829-5 0 9997 2 43259 98.0636 134.7433 0002241 338.7467 21.3649 14.76445906428509 GAOFEN-1 03 1 43260U 18031B 26071.97425176 .00001045 00000+0 15770-3 0 9997 2 43260 98.0628 134.5903 0003304 42.2596 317.8868 14.76426100428492 GAOFEN-1 04 1 43262U 18031D 26071.95002419 .00001112 00000+0 16722-3 0 9991 2 43262 98.0639 134.7449 0001872 76.2636 283.8782 14.76444954428486 SENTINEL-3B 1 43437U 18039A 26071.76105596 .00000145 00000+0 77858-4 0 9995 2 43437 98.6222 140.6501 0001051 127.9282 232.1994 14.26737660410374 GAOFEN-5 01 1 43461U 18043A 26071.87814168 .00000539 00000+0 12111-3 0 9998 2 43461 98.4471 41.4999 0002492 45.7334 314.4070 14.60527387417635 GAOFEN-6 1 43484U 18048A 26071.98102292 .00000290 00000+0 48540-4 0 9998 2 43484 97.7865 138.1453 0013353 124.7509 235.4960 14.76601228419195 GAOFEN-11 01 1 43585U 18063A 26071.96247715 .00007463 00000+0 12398-3 0 9995 2 43585 97.1406 139.2635 0003392 351.7160 8.4037 15.52369031425405 ICESAT-2 1 43613U 18070A 26071.96626424 .00004008 00000+0 14565-3 0 9993 2 43613 91.9995 265.0502 0003873 112.6596 247.5063 15.28236593417768 HYSIS 1 43719U 18096A 26071.98437603 .00000628 00000+0 92806-4 0 9998 2 43719 97.9934 139.4460 0001804 94.4840 265.6577 14.78665820393208 KAZSTSAT 1 43783U 18099AB 26071.62158898 .00001439 00000+0 12136-3 0 9997 2 43783 97.4390 107.8821 0006122 1.7066 358.4177 14.99629985396833 SAUDISAT 5A 1 43831U 18102A 26072.00057529 .00007137 00000+0 27165-3 0 9997 2 43831 97.3185 135.4544 0011477 112.3670 247.8787 15.26985483400996 SAUDISAT 5B 1 43833U 18102C 26071.97169236 .00006867 00000+0 25906-3 0 9993 2 43833 97.3281 138.3238 0012152 114.7697 245.4809 15.27291966401103 GAOFEN-10R 1 44622U 19066A 26072.00430093 .00001954 00000+0 24608-3 0 9997 2 44622 98.0401 24.9509 0008243 97.2868 262.9282 14.83167892348126 CARTOSAT-3 1 44804U 19081A 26071.93041334 .00002256 00000+0 11024-3 0 9997 2 44804 97.4417 135.2914 0013247 126.8408 233.4043 15.19203751348856 GAOFEN-12 01 1 44819U 19082A 26071.96701192 .00000650 00000+0 91773-4 0 9998 2 44819 97.8140 80.8789 0001628 54.9487 305.1878 14.80370086339858 CSG-1 1 44873U 19092A 26071.98385637 .00000695 00000+0 93877-4 0 9999 2 44873 97.8874 256.9741 0001381 85.6651 274.4720 14.82153747337224 NEMO-HD 1 46277U 20061F 26071.92829818 .00011860 00000+0 27470-3 0 9996 2 46277 97.2040 134.9386 0002279 75.1362 285.0138 15.42585394307135 SENTINEL-6A 1 46984U 20086A 26071.73981397 -.00000053 00000+0 33182-4 0 9999 2 46984 66.0443 335.3779 0007771 270.9015 89.1110 12.80929808247975 GAOFEN-12 02 1 48079U 21026A 26071.96784728 .00000647 00000+0 92070-4 0 9994 2 48079 97.9919 70.5546 0004849 169.5205 190.6109 14.80208230267520 PLEIADES NEO 3 1 48268U 21034A 26071.95185216 -.00000209 00000+0 -20012-4 0 9992 2 48268 97.8927 148.0992 0001274 93.6542 266.4817 14.81670227263405 PLEIADES NEO 4 1 49070U 21073E 26071.98560534 .00000002 00000+0 68709-5 0 9995 2 49070 97.8929 148.1288 0001352 93.7225 266.4143 14.81673234247128 LANDSAT 9 1 49260U 21088A 26071.71629571 .00000497 00000+0 12030-3 0 9992 2 49260 98.1935 143.4538 0001074 93.7723 266.3598 14.57128817236957 CSG-2 1 51444U 22008A 26071.95007446 .00001232 00000+0 16122-3 0 9993 2 51444 97.8872 256.9380 0001383 78.9221 281.2148 14.82166073222334 GAOFEN-12 03 1 52912U 22069A 26071.97788753 .00001303 00000+0 17955-3 0 9994 2 52912 97.8399 322.2196 0002325 88.4137 271.7341 14.79860804200389 SWOT 1 54754U 22173A 26071.95376382 .00000045 00000+0 32019-4 0 9996 2 54754 77.6119 165.2161 0000583 251.0894 109.0194 14.00170123165684 GAOFEN-12 04 1 57654U 23123A 26071.93852786 .00001573 00000+0 21464-3 0 9997 2 57654 97.9129 351.3528 0001626 74.5743 285.5648 14.80014795138399 PARS 1 1 59065U 24039Q 26071.98660410 .00014499 00000+0 32417-3 0 9999 2 59065 97.4754 50.0737 0012148 100.8793 259.3822 15.43528186113794 RESURS-P 4 1 59371U 24061A 26072.00954391 .00004734 00000+0 15113-3 0 9997 2 59371 97.2653 21.6087 0002222 56.6776 303.4679 15.32959917109034 LEGION 1 1 59625U 24081A 26071.96699286 .00005577 00000+0 29041-3 0 9995 2 59625 97.5068 150.8347 0009850 2.7248 357.4037 15.16379736102951 LEGION 2 1 59626U 24081B 26071.94115043 .00005055 00000+0 26192-3 0 9993 2 59626 97.5068 150.8832 0009966 333.1547 26.9169 15.16601002102950 ALOS-4 (DAICHI-4) 1 60182U 24123A 26071.98460222 .00002039 00000+0 27988-3 0 9998 2 60182 97.9190 170.5364 0001563 101.9474 258.1912 14.79469726 91655 LEGION 3 1 60452U 24146A 26071.70822385 .00005930 00000+0 31466-3 0 9994 2 60452 45.0001 187.7205 0013258 337.0191 23.0094 15.16188874 87385 LEGION 4 1 60453U 24146B 26071.96978324 .00006238 00000+0 33002-3 0 9998 2 60453 45.0024 278.1648 0009583 125.7483 234.4288 15.16247372 86278 SENTINEL-2C 1 60989U 24157A 26071.73900317 .00000148 00000+0 73133-4 0 9990 2 60989 98.5683 147.9075 0000813 107.1330 252.9942 14.30815568 79193 IONOSFERA-M 1 1 61735U 24199A 26071.98731795 .00000049 00000+0 41619-4 0 9999 2 61735 98.7321 306.1026 0002068 71.8490 288.2913 14.22735885114023 IONOSFERA-M 2 1 61736U 24199B 26071.95148563 .00000048 00000+0 41095-4 0 9999 2 61736 98.7320 305.9786 0000424 132.1889 227.9325 14.22738446117149 BIOMASS 1 63772U 25090A 26071.96190024 .00000431 00000+0 84454-4 0 9994 2 63772 98.0751 260.6662 0001361 96.1536 263.9824 14.67534516 46574 GOSAT-GW (IBUKI GW) 1 64694U 25141A 26065.03170321 .00001373 00000+0 25032-3 0 9996 2 64694 98.0504 4.0681 0001432 83.7436 276.3932 14.67569112 36718 IONOSFERA-M 3 1 64876U 25155A 26072.02381626 .00000109 00000+0 69323-4 0 9990 2 64876 98.5927 36.4032 0002218 112.9574 247.1838 14.21467543 32749 IONOSFERA-M 4 1 64877U 25155B 26071.98840170 .00000117 00000+0 73209-4 0 9996 2 64877 98.5924 36.2871 0001745 100.1157 260.0218 14.21469311 32736 MICROCARB 1 64899U 25156A 26071.70987562 .00000824 00000+0 13836-3 0 9992 2 64899 97.9883 150.5595 0015654 216.8302 143.1831 14.72208247 33773 CO3D 3 1 64900U 25156B 26071.95472037 .00005746 00000+0 26826-3 0 9999 2 64900 97.4328 152.0292 0001668 133.5248 226.6126 15.20212109 34917 CO3D 4 1 64901U 25156C 26061.29158243 .00001237 00000+0 60250-4 0 9997 2 64901 97.4334 141.5187 0000254 280.3117 79.8089 15.20203154 33293 CO3D 2 1 64902U 25156D 26071.98734866 .00004279 00000+0 20066-3 0 9995 2 64902 97.4329 151.9604 0001425 110.4474 249.6914 15.20200905 34912 CO3D 1 1 64903U 25156E 26071.92167987 .00002696 00000+0 12764-3 0 9991 2 64903 97.4333 151.8957 0001484 118.9941 241.1444 15.20194383 34901 SENTINEL-6B 1 66514U 25264A 26071.74015198 -.00000051 00000+0 42783-4 0 9996 2 66514 66.0449 335.5047 0007916 269.5594 90.4514 12.80928745 14816 CSG-3 1 67304U 26001A 26071.99652340 .00000518 00000+0 71644-4 0 9992 2 67304 97.8869 256.9863 0001429 86.9898 273.1478 14.82153126 10211